Weather History for GMTT - December, 2013

Change the Weather History Date:

Sunday, December 8, 2013

  Actual Average Record
Temperature  
Mean Temperature 54 °F -  
Max Temperature 65 °F 61 °F - ()
Min Temperature 42 °F 46 °F - ()
Degree Days  
Heating Degree Days 12    
Growing Degree Days 4 (Base 50)    
Moisture  
Dew Point 47 °F    
Average Humidity 75    
Maximum Humidity 94    
Minimum Humidity 49    
Precipitation  
Precipitation 0.00 in 0.16 in - ()
Sea Level Pressure  
Sea Level Pressure 30.26 in    
Wind  
Wind Speed 6 mph ()    
Max Wind Speed 15 mph    
Max Gust Speed -    
Visibility 5.5 miles    
Events      
T = Trace of Precipitation, MM = Missing Value Source: Averaged Metar Reports

Daily Weather History Graph

Daily Weather History Graph

Search for Another Location

Airport or City:

Trip Planner

Search our weather history database for the weather conditions in past years. The results will help you decide how hot, cold, wet, or windy it might be!

Date:

Astronomy

Dec. 08, 2013 Rise Set
Actual Time 7:21 AM WET 5:10 PM WET
Civil Twilight 6:52 AM WET 5:38 PM WET
Nautical Twilight 6:20 AM WET 6:10 PM WET
Astronomical Twilight 5:49 AM WET 6:41 PM WET
Moon 11:42 AM WET (12/8) 11:34 PM WET (12/8)
Length of Visible Light 10h 45m
Length of Day
9h 49m
Waxing Crescent, 37% of the Moon is Illuminated
Dec 8
Waxing Crescent
Dec 9
First Quarter
Dec 17
Full
Dec 25
Last Quarter
Jan 1
New

Hourly Weather History & Observations

Time (WET) Temp. Windchill Dew Point Humidity Pressure Visibility Wind Dir Wind Speed Gust Speed Precip Events Conditions
12:00 AM 50 °F - 45 °F 78% 30.27 in 5 mi East 6.9 mph - -   Scattered Clouds
12:00 AM 50.0 °F - 44.6 °F 82% 30.24 in 5.0 mi East 6.9 mph - N/A   Partly Cloudy
2:30 AM 50.0 °F - 46.4 °F 87% 30.24 in 5.0 mi East 5.8 mph - N/A   Partly Cloudy
3:00 AM 49 °F - 46 °F 85% 30.26 in 5 mi East 4.6 mph - -   Scattered Clouds
3:00 AM 50.0 °F - 46.4 °F 87% 30.24 in 5.0 mi East 5.8 mph - N/A   Partly Cloudy
3:30 AM 48.2 °F - 44.6 °F 87% 30.24 in - East 4.6 mph - N/A   Unknown
4:00 AM 50.0 °F - 46.4 °F 87% 30.24 in - East 5.8 mph - N/A   Unknown
4:30 AM 50.0 °F - 46.4 °F 87% 30.24 in - East 5.8 mph - N/A   Unknown
5:00 AM 48.2 °F - 44.6 °F 87% 30.24 in - East 5.8 mph - N/A   Unknown
5:30 AM 46.4 °F - 42.8 °F 87% 30.24 in - Variable 2.3 mph - N/A   Unknown
6:00 AM 46 °F - 42 °F 83% 30.27 in 5 mi East 4.6 mph - -   Scattered Clouds
6:00 AM 46.4 °F 44.3 °F 42.8 °F 87% 30.24 in 5.0 mi East 4.6 mph - N/A   Partly Cloudy
7:00 AM 42.8 °F - 39.2 °F 87% 30.27 in 5.0 mi Variable 2.3 mph - N/A   Partly Cloudy
7:30 AM 42.8 °F - 39.2 °F 87% 30.27 in 5.0 mi Calm Calm - N/A   Partly Cloudy
8:00 AM 44.6 °F - 42.8 °F 93% 30.27 in 5.0 mi Variable 2.3 mph - N/A   Partly Cloudy
8:30 AM 46.4 °F - 44.6 °F 93% 30.27 in 5.0 mi Calm Calm - N/A   Partly Cloudy
9:00 AM 51 °F - 49 °F 88% 30.31 in 5 mi Calm Calm - -   Scattered Clouds
9:00 AM 50.0 °F - 48.2 °F 94% 30.30 in 5.0 mi Calm Calm - N/A   Partly Cloudy
9:30 AM 53.6 °F - 50.0 °F 88% 30.30 in 6.2 mi Calm Calm - N/A   Partly Cloudy
10:00 AM 55.4 °F - 50.0 °F 82% 30.30 in 6.2 mi Calm Calm - N/A   Partly Cloudy
10:30 AM 59.0 °F - 50.0 °F 72% 30.30 in 6.2 mi Variable 2.3 mph - N/A   Partly Cloudy
11:00 AM 60.8 °F - 48.2 °F 63% 30.30 in 6.2 mi Variable 2.3 mph - N/A   Partly Cloudy
11:30 AM 60.8 °F - 50.0 °F 68% 30.30 in 6.2 mi West 5.8 mph - N/A   Partly Cloudy
12:00 PM 62 °F - 51 °F 59% 30.30 in 6 mi West 8.1 mph - -   Scattered Clouds
12:00 PM 60.8 °F - 51.8 °F 72% 30.30 in 6.2 mi West 8.1 mph - N/A   Partly Cloudy
12:30 PM 62.6 °F - 51.8 °F 68% 30.27 in 6.2 mi West 5.8 mph - N/A   Partly Cloudy
1:00 PM 62.6 °F - 51.8 °F 68% 30.27 in 6.2 mi West 6.9 mph - N/A   Partly Cloudy
1:30 PM 64.4 °F - 51.8 °F 64% 30.27 in 6.2 mi West 5.8 mph - N/A   Partly Cloudy
2:00 PM 64.4 °F - 50.0 °F 59% 30.24 in 6.2 mi ENE 8.1 mph - N/A   Partly Cloudy
2:30 PM 64.4 °F - 50.0 °F 59% 30.24 in 6.2 mi ENE 11.5 mph - N/A   Partly Cloudy
3:00 PM 64 °F - 50 °F 49% 30.25 in 6 mi ENE 15.0 mph - -   Scattered Clouds
3:00 PM 64.4 °F - 50.0 °F 59% 30.24 in 6.2 mi ENE 15.0 mph - N/A   Partly Cloudy
3:30 PM 64.4 °F - 50.0 °F 59% 30.24 in 6.2 mi ENE 15.0 mph - N/A   Partly Cloudy
4:00 PM 62.6 °F - 48.2 °F 59% 30.24 in 6.2 mi ENE 15.0 mph - N/A   Partly Cloudy
4:30 PM 62.6 °F - 48.2 °F 59% 30.24 in 6.2 mi ENE 13.8 mph - N/A   Partly Cloudy
5:00 PM 60.8 °F - 48.2 °F 63% 30.24 in 6.2 mi ENE 10.4 mph - N/A   Partly Cloudy
5:30 PM 59.0 °F - 46.4 °F 63% 30.24 in 6.2 mi East 8.1 mph - N/A   Partly Cloudy
6:00 PM 57 °F - 47 °F 60% 30.27 in 5 mi East 9.2 mph - -   Scattered Clouds
6:00 PM 57.2 °F - 46.4 °F 67% 30.24 in 5.0 mi East 9.2 mph - N/A   Partly Cloudy
6:30 PM 57.2 °F - 46.4 °F 67% 30.27 in 5.0 mi East 9.2 mph - N/A   Partly Cloudy
7:00 PM 57.2 °F - 48.2 °F 72% 30.27 in 5.0 mi East 9.2 mph - N/A   Partly Cloudy
7:30 PM 57.2 °F - 48.2 °F 72% 30.27 in 5.0 mi East 10.4 mph - N/A   Partly Cloudy
8:00 PM 55.4 °F - 48.2 °F 77% 30.27 in 5.0 mi East 8.1 mph - N/A   Partly Cloudy
8:30 PM 51.8 °F - 46.4 °F 82% 30.27 in 5.0 mi SE 5.8 mph - N/A   Partly Cloudy
9:00 PM 52 °F - 46 °F 74% 30.29 in 5 mi East 6.9 mph - -   Scattered Clouds
9:00 PM 51.8 °F - 46.4 °F 82% 30.27 in 5.0 mi East 6.9 mph - N/A   Partly Cloudy
9:30 PM 53.6 °F - 48.2 °F 82% 30.27 in 5.0 mi East 9.2 mph - N/A   Partly Cloudy
10:00 PM 55.4 °F - 46.4 °F 72% 30.27 in 5.0 mi East 10.4 mph - N/A   Partly Cloudy
10:30 PM 55.4 °F - 46.4 °F 72% 30.27 in 5.0 mi East 10.4 mph - N/A   Partly Cloudy
11:00 PM 55.4 °F - 46.4 °F 72% 30.27 in 5.0 mi East 11.5 mph - N/A   Partly Cloudy
11:30 PM 55.4 °F - 46.4 °F 72% 30.27 in 5.0 mi East 10.4 mph - N/A   Partly Cloudy